TimeAKDT,TemperatureF,Dew PointF,Humidity,Sea Level PressureIn,VisibilityMPH,Wind Direction,Wind SpeedMPH,Gust SpeedMPH,PrecipitationIn,Events,Conditions,WindDirDegrees,DateUTC
12:53 AM,60.1,46.0,60,29.55,10.0,Calm,Calm,-,0.00,,Mostly Cloudy,0,2012-08-02 08:53:00
1:53 AM,59.0,46.0,62,29.54,10.0,SW,3.5,-,N/A,,Overcast,220,2012-08-02 09:53:00
2:53 AM,57.9,45.0,62,29.55,10.0,Calm,Calm,-,N/A,,Overcast,0,2012-08-02 10:53:00
3:53 AM,55.9,46.9,72,29.56,10.0,Calm,Calm,-,N/A,,Overcast,0,2012-08-02 11:53:00
4:53 AM,55.9,45.0,67,29.57,10.0,East,4.6,-,N/A,,Overcast,100,2012-08-02 12:53:00
5:53 AM,55.9,46.9,72,29.58,10.0,Calm,Calm,-,N/A,,Overcast,0,2012-08-02 13:53:00
6:53 AM,55.0,46.0,72,29.59,10.0,Calm,Calm,-,N/A,,Mostly Cloudy,0,2012-08-02 14:53:00
7:53 AM,57.0,48.9,74,29.60,10.0,Calm,Calm,-,N/A,,Mostly Cloudy,0,2012-08-02 15:53:00
8:53 AM,57.0,46.0,67,29.62,10.0,Calm,Calm,-,N/A,,Mostly Cloudy,0,2012-08-02 16:53:00
9:53 AM,60.1,46.0,60,29.62,10.0,Calm,Calm,-,N/A,,Mostly Cloudy,0,2012-08-02 17:53:00
10:53 AM,62.1,46.0,56,29.62,10.0,Calm,Calm,-,N/A,,Mostly Cloudy,0,2012-08-02 18:53:00
11:53 AM,63.0,45.0,52,29.63,10.0,Calm,Calm,-,N/A,,Mostly Cloudy,0,2012-08-02 19:53:00
12:53 PM,64.0,45.0,50,29.65,10.0,WNW,6.9,-,N/A,,Mostly Cloudy,300,2012-08-02 20:53:00
1:53 PM,64.0,44.1,48,29.65,10.0,WNW,10.4,-,N/A,,Mostly Cloudy,290,2012-08-02 21:53:00
2:53 PM,64.0,44.1,48,29.67,10.0,West,6.9,-,N/A,,Mostly Cloudy,270,2012-08-02 22:53:00
3:53 PM,64.0,45.0,50,29.68,10.0,WSW,6.9,-,N/A,,Mostly Cloudy,250,2012-08-02 23:53:00
4:53 PM,63.0,46.0,54,29.68,10.0,West,9.2,-,0.00,Rain,Light Rain,260,2012-08-03 00:53:00
5:53 PM,61.0,46.9,60,29.70,10.0,West,10.4,-,0.00,,Mostly Cloudy,280,2012-08-03 01:53:00
6:53 PM,59.0,48.0,67,29.73,10.0,West,10.4,-,N/A,,Mostly Cloudy,260,2012-08-03 02:53:00
7:53 PM,57.0,46.9,69,29.75,10.0,WSW,9.2,-,N/A,,Mostly Cloudy,250,2012-08-03 03:53:00
8:53 PM,55.9,46.0,69,29.77,10.0,SW,5.8,-,N/A,,Overcast,230,2012-08-03 04:53:00
9:53 PM,54.0,45.0,72,29.79,10.0,SW,5.8,-,N/A,,Overcast,230,2012-08-03 05:53:00
10:53 PM,53.1,44.1,71,29.81,10.0,SW,9.2,-,N/A,,Overcast,230,2012-08-03 06:53:00
11:53 PM,51.1,44.1,77,29.83,10.0,WSW,9.2,-,N/A,,Overcast,240,2012-08-03 07:53:00